Weather in Beregovoy

Russia / Chelyabinsk Oblast     55°59′28″N   61°16′57″E
temp.,
°C
wind,
m/s
gust,
m/s
humid.,
%
clouds,
%
prec.,
mm/h
press.,
hPa
HPBL,
m
28 june, tue
tue2823:00+13sw3792100 1.4 1005173
02:00+12w41196100 2.4 1003498
05:00+9nnw71194100 3.5 1005602
08:00+8n698643 0.0 1006758
11:00+8nnw677790 0.2 1007940
14:00+9nnw786241 0.1 10081314
17:00+9nw795887 0.1 10081597
20:00+8nw586680 0.0 1008802
29 june, wed
wed2923:00+5wnw4108122 0.0 1009268
02:00+5nw6117668 0.0 1008443
05:00+4nw61180100 0.0 1007625
08:00+6nw71390100 0.1 1007905
11:00+8nw81281100 0.1 10071147
14:00+9nnw81373100 0.0 10071018
17:00+16nw5115442 0.0 10062245
20:00+14n34685 0.0 100684
30 june, thu
thu3023:00+9wnw337097 0.0 100719
02:00+11wnw3771100 0.0 1006143
05:00+7wnw498478 0.0 1006175
08:00+12nw586795 0.0 1006461
11:00+16nw454994 0.0 10061612
14:00+17nw344554 0.0 10062087
17:00+17ne445244 0.0 10071528
20:00+13ene477537 0.3 1008313
1 july, fri
fri123:00+8ne378849 0.3 1010120
02:00+5ne49965 0.0 1011206
05:00+4nne359688 0.0 1012155
08:00+8n237853 0.0 1012330
11:00+13nne225953 0.0 1012780
14:00+17e015125 0.0 10111474
17:00+17sse125382 0.0 10111355
20:00+13ene337499 0.1 101149
2 july, sat
sat223:00+12nne227453 0.1 101214
02:00+9nw228327 0.0 101220
05:00+8nw338691 0.0 101146
08:00+13wnw3472100 0.0 1010249
11:00+18nw345669 0.0 10091329
14:00+14n6977100 0.1 1009432
17:00+13wnw3893100 1.0 1008438
20:00+12w3892100 0.0 1007254